| time (UTC) | temp C | wind direction | speed KPH | gust KPH | rain 1hr cm | rain 24hr cm | rain mn cm | humidity % | barometer mb |
| 20260505034124 | 16 | 270 | 0.0 | 3.2 | 0.00 | 0.00 | 0.00 | 70 | 1010.5 |
| 20260505032624 | 16 | 203 | 0.0 | 1.6 | 0.00 | 0.00 | 0.00 | 68 | 1010.5 |
| 20260505031126 | 16 | 174 | 0.0 | 1.6 | 0.00 | 0.00 | 0.00 | 66 | 1010.5 |
| 20260505025623 | 16 | 246 | 0.0 | 1.6 | 0.00 | 0.00 | 0.00 | 63 | 1010.5 |
| 20260505024125 | 16 | 206 | 0.0 | 1.6 | 0.00 | 0.00 | 0.00 | 60 | 1010.6 |
| 20260505022622 | 17 | 178 | 0.0 | 1.6 | 0.00 | 0.00 | 0.00 | 58 | 1010.8 |
| 20260505021122 | 17 | 180 | 0.0 | 0.0 | 0.00 | 0.00 | 0.00 | 57 | 1010.6 |
| 20260505015623 | 17 | 180 | 0.0 | 0.0 | 0.00 | 0.00 | 0.00 | 56 | 1010.5 |
| 20260505014124 | 17 | 180 | 0.0 | 1.6 | 0.00 | 0.00 | 0.00 | 56 | 1010.3 |
| 20260505012732 | 17 | 131 | 0.0 | 1.6 | 0.00 | 0.00 | 0.00 | 56 | 1010.4 |
| 20260505012623 | 17 | 131 | 0.0 | 1.6 | 0.00 | 0.00 | 0.00 | 56 | 1010.4 |
| 20260505005625 | 18 | 131 | 0.0 | 0.0 | 0.00 | 0.00 | 0.00 | 53 | 1010.2 |
| 20260505004124 | 18 | 131 | 0.0 | 0.0 | 0.00 | 0.00 | 0.00 | 52 | 1010.1 |
| 20260505002627 | 18 | 272 | 0.0 | 1.6 | 0.00 | 0.00 | 0.00 | 51 | 1010.1 |
| 20260505001125 | 19 | 169 | 0.0 | 1.6 | 0.00 | 0.00 | 0.00 | 50 | 1010.0 |
| 20260504235623 | 20 | 210 | 0.0 | 0.0 | 0.00 | 0.00 | 0.00 | 47 | 1010.0 |
| 20260504234123 | 20 | 186 | 0.0 | 1.6 | 0.00 | 0.00 | 0.00 | 46 | 1010.0 |
| 20260504232623 | 21 | 209 | 1.6 | 4.8 | 0.00 | 0.00 | 0.00 | 47 | 1010.0 |
| 20260504231126 | 21 | 178 | 0.0 | 1.6 | 0.00 | 0.00 | 0.00 | 45 | 1009.9 |
| 20260504225622 | 22 | 216 | 4.8 | 4.8 | 0.00 | 0.00 | 0.00 | 39 | 1009.9 |
| 20260504224123 | 22 | 172 | 4.8 | 8.0 | 0.00 | 0.00 | 0.00 | 37 | 1009.7 |
| 20260504222624 | 23 | 230 | 3.2 | 9.7 | 0.00 | 0.00 | 0.00 | 38 | 1009.8 |
| 20260504221123 | 23 | 207 | 4.8 | 8.0 | 0.00 | 0.00 | 0.00 | 36 | 1009.8 |
| 20260504215622 | 23 | 231 | 3.2 | 4.8 | 0.00 | 0.00 | 0.00 | 36 | 1010.0 |
| 20260504214125 | 23 | 212 | 8.0 | 12.9 | 0.00 | 0.00 | 0.00 | 36 | 1010.0 |
| 20260504212625 | 24 | 221 | 1.6 | 4.8 | 0.00 | 0.00 | 0.00 | 38 | 1010.1 |
| 20260504211126 | 24 | 121 | 1.6 | 4.8 | 0.00 | 0.00 | 0.00 | 36 | 1010.0 |
| 20260504205625 | 24 | 183 | 9.7 | 12.9 | 0.00 | 0.00 | 0.00 | 36 | 1010.1 |
| 20260504204125 | 24 | 92 | 3.2 | 9.7 | 0.00 | 0.00 | 0.00 | 40 | 1010.1 |
| 20260504201123 | 23 | 160 | 3.2 | 4.8 | 0.00 | 0.00 | 0.00 | 37 | 1010.6 |
| 20260504192625 | 23 | 239 | 4.8 | 11.3 | 0.00 | 0.00 | 0.00 | 36 | 1011.4 |
| 20260504191125 | 23 | 232 | 1.6 | 4.8 | 0.00 | 0.00 | 0.00 | 39 | 1011.6 |
| 20260504184125 | 23 | 205 | 3.2 | 12.9 | 0.00 | 0.00 | 0.00 | 36 | 1011.8 |
| 20260504182624 | 23 | 267 | 3.2 | 11.3 | 0.00 | 0.00 | 0.00 | 35 | 1011.9 |
| 20260504174126 | 22 | 316 | 4.8 | 4.8 | 0.00 | 0.00 | 0.00 | 35 | 1012.7 |
| 20260504172625 | 22 | 185 | 3.2 | 8.0 | 0.00 | 0.00 | 0.00 | 34 | 1012.7 |
| 20260504171125 | 21 | 288 | 4.8 | 9.7 | 0.00 | 0.00 | 0.00 | 35 | 1013.0 |
| 20260504151125 | 19 | 209 | 3.2 | 4.8 | 0.00 | 0.00 | 0.00 | 45 | 1014.1 |
| 20260504081123 | 9 | 224 | 0.0 | 0.0 | 0.00 | 0.00 | 0.00 | 76 | 1015.4 |
| 20260504045624 | 8 | 242 | 0.0 | 0.0 | 0.00 | 0.00 | 0.00 | 74 | 1015.6 |
| 20260504044124 | 7 | 242 | 0.0 | 0.0 | 0.00 | 0.00 | 0.00 | 73 | 1015.7 |
| 20260504042624 | 7 | 250 | 0.0 | 0.0 | 0.00 | 0.00 | 0.00 | 73 | 1015.4 |
| 20260504041123 | 7 | 250 | 0.0 | 0.0 | 0.00 | 0.00 | 0.00 | 71 | 1015.5 |
| 20260504035624 | 7 | 250 | 0.0 | 0.0 | 0.00 | 0.00 | 0.00 | 72 | 1015.4 |